Погода в Карасуле

Россия / Тюменская область     56°18′12″N   68°55′47″E
темп.,
°C
ветер,
м/с
пор.,
м/с
влажн.,
%
обл.,
%
осадки,
мм/ч
давл.,
гПа
погр.,
м
3 марта, ср
ср323:00−18ююз4119664 0.0 1010204
02:00−18ю599677 0.0 1008196
05:00−17ю6129584 0.0 1007286
08:00−16ююз61294100 0.0 1005358
11:00−13ююз71394100 0.6 1005531
14:00−8ююз71290100 0.6 1004782
17:00−7ююз71291100 0.9 1004797
20:00−6ююз61393100 0.1 1004580
4 марта, чт
чт423:00−5ююз41094100 0.2 1004431
02:00−5ююз51194100 0.2 1002405
05:00−4ююз51195100 0.4 1002464
08:00−4ююз61294100 0.2 1000485
11:00−2ююз6996100 0.4 999587
14:000ююз5899100 0.9 997635
17:00−1юз5995100 1.7 996549
20:00−3з61193100 1.3 996537
5 марта, пт
пт523:00−7зюз6139292 1.3 998362
02:00−9зюз6139186 0.0 1000288
05:00−13ююз5109248 0.0 1001210
08:00−10юз7149385 0.3 1001682
11:00−6юз8139392 0.9 1001937
14:00−2зюз91384100 0.5 10011314
17:00−2зюз6128598 0.6 1003691
20:00−4юз41090100 0.0 1004245
6 марта, сб
сб623:00−2ююз61197100 0.7 1003577
02:00−1юз61296100 1.1 1001712
05:00−1юз71397100 2.1 1000691
08:00−1ююз51097100 1.5 998614
11:00−1ссз81196100 6.1 998663
14:00−4з91286100 0.5 1003923
17:00−7з7128696 0.6 1007757
20:00−11зюз61392100 0.1 1009461
7 марта, вс
вс723:00−15зюз499697 0.1 1011182
02:00−16зюз349698 0.0 101068
05:00−14юз239599 0.0 101080
08:00−13вюв1196100 0.3 100774
11:00−10всв2391100 0.7 1006301
14:00−8ссв3493100 0.5 1005433
17:00−9ссз4693100 0.9 1006417
20:00−14сз349541 0.0 100935